Location: Stonelick Lake State Park
(39.2170°N, 84.0850°W)
Time: 11:23:58
(UTC-04:00)

Amateur Radio Satellites - All Passes

Search period start: 23 October 2017 10:53
Search period end: 24 October 2017 10:53
Location: Stonelick Lake State Park, 39.2170°N, 84.0850°W

Satellite Date Start Highest point End Downlink Frequencies (MHz)
Time Altitude Azimuth
EO-88 23 Oct 10:58:29 11:01:29 24° 96° (E) 11:04:29 145.990 - 145.960
RS-15 23 Oct 10:58:59 11:10:44 71° 245° (WSW) 11:21:49 29.354- 29.394
AO-73 23 Oct 11:02:29 11:05:39 20° 293° (WNW) 11:08:45 145.935
DELFI C3 23 Oct 11:02:33 11:06:29 59° 100° (E) 11:10:24 145.870
Max Valier Satellite 23 Oct 11:15:26 11:19:04 60° 100° (E) 11:22:40 145.860
ZACube-1 23 Oct 11:29:01 11:29:28 10° 298° (WNW) 11:29:56 437.345
ISS 23 Oct 11:34:48 11:37:01 17° 339° (NNW) 11:39:13 437.550
AIST 2D 23 Oct 11:38:53 11:42:06 35° 73° (ENE) 11:45:18 435.315
NO-84 23 Oct 11:39:21 11:41:55 18° 237° (WSW) 11:44:20 435.350 FM
YUBILEINY 23 Oct 11:52:01 11:59:10 28° 291° (WNW) 12:06:23 435.215
UNISAT 6 23 Oct 12:13:14 12:14:14 11° 271° (W) 12:15:13 437.425
PRISM 23 Oct 12:14:25 12:17:11 18° 266° (W) 12:19:58 437.425
BEESAT 2 23 Oct 12:23:17 12:26:40 27° 113° (ESE) 12:30:07 435.950
AO-85 23 Oct 12:24:23 12:26:46 16° 110° (ESE) 12:29:10 145.980
EO-79 23 Oct 12:24:23 12:28:28 48° 73° (ENE) 12:32:37 145.935-145.965
POLYITAN 1 23 Oct 12:29:59 12:34:11 56° 74° (ENE) 12:38:24 437.675
BEESAT 3 23 Oct 12:31:19 12:35:18 66° 303° (WNW) 12:39:18 437.485
EO-88 23 Oct 12:32:23 12:34:58 19° 291° (WNW) 12:37:33 145.990 - 145.960
DELFI C3 23 Oct 12:40:02 12:40:41 10° 296° (WNW) 12:41:21 145.870
NANOSAT C BR1 23 Oct 12:50:08 12:54:23 86° 77° (ENE) 12:58:41 145.865
QB50P2 23 Oct 12:50:28 12:54:44 74° 258° (WSW) 12:59:02 145.880/145.840
ESTCUBE 1 23 Oct 12:52:15 12:56:39 52° 100° (E) 13:01:01 437.505/2401.250
SPROUT 23 Oct 12:54:15 12:56:02 12° 91° (E) 12:57:48 437.525
BUGSAT 1 23 Oct 12:54:21 12:57:29 21° 67° (ENE) 13:00:38 437.445
DUCHIFAT 1 23 Oct 12:58:56 13:03:10 86° 257° (WSW) 13:07:27 145.980
Oscar 19 23 Oct 12:59:41 13:02:35 15° 62° (ENE) 13:05:30 437.125/150
LO-87 23 Oct 13:10:08 13:13:40 51° 285° (WNW) 13:17:10 145.935 - 145.965
AIST 2D 23 Oct 13:14:03 13:15:24 12° 268° (W) 13:16:45 435.315
RS-15 23 Oct 13:15:44 13:20:43 14° 265° (W) 13:25:37 29.354- 29.394
M-CUBED/EXP-1 PRIME 23 Oct 13:25:51 13:28:01 16° 64° (ENE) 13:30:08 437.505
Gurwin Techsat 1B 23 Oct 13:56:08 14:00:56 36° 69° (ENE) 14:05:45 435.225
BEESAT 2 23 Oct 14:00:56 14:04:20 26° 310° (NW) 14:07:47 435.950
EO-79 23 Oct 14:02:23 14:04:29 13° 268° (W) 14:06:35 145.935-145.965
AO-85 23 Oct 14:03:09 14:06:47 37° 307° (NW) 14:10:31 145.980
VELOX 1 23 Oct 14:03:12 14:07:32 51° 100° (E) 14:11:51 145.980
POLYITAN 1 23 Oct 14:08:49 14:10:17 11° 269° (W) 14:11:44 437.675
nSIGHT-1 23 Oct 14:08:56 14:10:02 11° 13° (NNE) 14:11:08 .
SPROUT 23 Oct 14:28:01 14:32:12 53° 286° (WNW) 14:36:21 437.525
BUGSAT 1 23 Oct 14:28:51 14:32:36 31° 263° (W) 14:36:24 437.445
ESTCUBE 1 23 Oct 14:30:32 14:32:58 15° 296° (WNW) 14:35:25 437.505/2401.250
50 SAT 23 Oct 14:35:24 14:38:19 28° 98° (E) 14:41:12 437.505
Oscar 19 23 Oct 14:36:12 14:41:20 66° 258° (WSW) 14:46:28 437.125/150
ISS 23 Oct 14:50:03 14:52:09 16° 20° (NNE) 14:54:15 437.550
DX 1 23 Oct 14:58:25 15:02:40 48° 100° (E) 15:06:53 434.975-435.025
AO-7 23 Oct 14:58:54 15:06:05 34° 59° (ENE) 15:13:15 .
M-CUBED/EXP-1 PRIME 23 Oct 14:59:34 15:02:18 23° 258° (WSW) 15:04:59 437.505
UKube-1 23 Oct 15:15:07 15:19:17 45° 100° (E) 15:23:26 .
ITAMSAT 1 23 Oct 15:18:08 15:21:48 20° 63° (ENE) 15:25:29 435.822/435.867
SO-50 23 Oct 15:32:46 15:37:15 49° 54° (NE) 15:41:47 436.795
Gurwin Techsat 1B 23 Oct 15:36:27 15:40:54 27° 265° (W) 15:45:22 435.225
VELOX 1 23 Oct 15:41:00 15:43:31 15° 296° (WNW) 15:46:03 145.980
nSIGHT-1 23 Oct 15:44:02 15:47:02 36° 32° (NNE) 15:50:02 .
50 SAT 23 Oct 16:08:40 16:10:19 13° 293° (WNW) 16:11:58 437.505
ITUPSAT 1 23 Oct 16:08:42 16:12:23 22° 95° (E) 16:16:03 437.325
BEESAT 23 Oct 16:21:23 16:25:35 30° 97° (E) 16:29:45 436.000
PCSat 23 Oct 16:21:49 16:25:19 17° 45° (NE) 16:28:47 145.827
ISS 23 Oct 16:25:47 16:29:04 80° 40° (NE) 16:32:20 437.550
DX 1 23 Oct 16:35:53 16:38:25 15° 296° (WNW) 16:40:58 434.975-435.025
MOZHAYETS 4 23 Oct 16:42:23 16:46:56 60° 101° (E) 16:51:24
AO-7 23 Oct 16:50:24 16:58:28 55° 258° (WSW) 17:06:34 .
UKube-1 23 Oct 16:52:19 16:54:54 16° 295° (WNW) 16:57:29 .
ITAMSAT 1 23 Oct 16:55:49 17:00:51 50° 260° (W) 17:05:55 435.822/435.867
CUBESAT XI-V 23 Oct 17:03:43 17:07:15 21° 94° (E) 17:10:47 437.345
SO-50 23 Oct 17:14:13 17:17:20 18° 250° (WSW) 17:20:28 436.795
nSIGHT-1 23 Oct 17:20:38 17:23:09 22° 228° (SW) 17:25:41 .
KKS-1 23 Oct 17:44:50 17:47:29 15° 93° (E) 17:50:08 437.445
ITUPSAT 1 23 Oct 17:45:53 17:50:17 37° 290° (WNW) 17:54:38 437.325
CUTE-I 23 Oct 17:52:47 17:56:21 19° 63° (ENE) 17:59:55 437.470
DOVE 4 23 Oct 17:53:31 17:57:42 73° 76° (ENE) 18:02:07 437.250
LilacSat-2 23 Oct 17:53:36 17:55:50 15° 67° (ENE) 17:58:05 437.200
XW-2D 23 Oct 17:55:56 17:58:11 15° 67° (ENE) 18:00:27 145.860 - 145.880
BEESAT 23 Oct 17:59:14 18:03:14 27° 292° (WNW) 18:07:11 436.000
PCSat 23 Oct 18:03:55 18:09:21 79° 243° (WSW) 18:14:45 145.827
XW-2B 23 Oct 18:08:49 18:11:42 21° 69° (ENE) 18:14:33 145.730 - 145.750
STARS 23 Oct 18:09:08 18:09:44 10° 90° (E) 18:10:19 437.465
MOZHAYETS 4 23 Oct 18:21:20 18:23:32 13° 297° (WNW) 18:25:43
XW-2C 23 Oct 18:31:29 18:35:03 40° 73° (ENE) 18:38:37 145.795 - 145.815
CUBESAT XI-V 23 Oct 18:40:31 18:44:40 34° 289° (WNW) 18:48:49 437.345
HO-68 23 Oct 18:42:36 18:48:32 29° 61° (ENE) 18:54:29 435.675
KAITUO 1B 23 Oct 19:04:38 19:08:21 79° 76° (ENE) 19:12:04 145.475/437.950
CUTE 1.7 + AOD 2 23 Oct 19:06:41 19:09:59 23° 69° (ENE) 19:13:17 437.475
SEEDS 23 Oct 19:07:49 19:10:01 14° 66° (ENE) 19:12:14 437.485
CUBEBUG 2 23 Oct 19:09:35 19:12:34 17° 65° (ENE) 19:15:34 437.445
NUDT-PHONESAT 23 Oct 19:12:36 19:16:19 85° 258° (WSW) 19:20:02 437.300
XW-2F 23 Oct 19:12:51 19:16:35 60° 259° (W) 19:20:19 145.980 - 146.000
KKS-1 23 Oct 19:19:57 19:24:16 46° 288° (WNW) 19:28:33 437.445
LilacSat-2 23 Oct 19:26:17 19:29:48 35° 262° (W) 19:33:19 437.200
XW-2D 23 Oct 19:28:36 19:32:04 33° 262° (W) 19:35:32 145.860 - 145.880
CUTE-I 23 Oct 19:30:41 19:35:54 57° 259° (W) 19:41:10 437.470
O/OREOS (USA 219) 23 Oct 19:37:28 19:38:29 11° 97° (E) 19:39:29 437.305
UWE-3 23 Oct 19:39:28 19:42:48 20° 66° (ENE) 19:46:07 435.000/436.395/437.385
STARS 23 Oct 19:42:03 19:46:29 67° 285° (WNW) 19:50:51 437.465
XW-2B 23 Oct 19:42:36 19:45:43 24° 264° (W) 19:48:50 145.730 - 145.750
XW-2A 23 Oct 19:49:27 19:51:59 20° 70° (ENE) 19:54:31 145.665 - 145.685
YUBILEINY 23 Oct 20:05:15 20:12:38 29° 69° (ENE) 20:19:58 435.215
XW-2C 23 Oct 20:07:45 20:09:23 12° 268° (W) 20:11:02 145.795 - 145.815
AO-73 23 Oct 20:19:56 20:23:35 24° 69° (ENE) 20:27:14 145.935
HO-68 23 Oct 20:28:52 20:35:51 54° 259° (W) 20:42:53 435.675
SEEDS 23 Oct 20:41:17 20:45:17 46° 261° (W) 20:49:19 437.485
CUTE 1.7 + AOD 2 23 Oct 20:42:01 20:45:40 28° 264° (W) 20:49:18 437.475
BEESAT 2 23 Oct 20:42:13 20:44:30 14° 44° (NE) 20:46:46 435.950
ZACube-1 23 Oct 20:43:26 20:47:51 48° 73° (ENE) 20:52:15 437.345
CUBEBUG 2 23 Oct 20:44:09 20:48:43 51° 261° (W) 20:53:21 437.445
BEESAT 3 23 Oct 20:48:56 20:52:46 47° 55° (NE) 20:56:32 437.485
AAUSAT CUBESAT 2 23 Oct 20:53:31 20:57:36 81° 258° (WSW) 21:01:43 437.432
AO-85 23 Oct 20:54:49 20:57:42 16° 45° (NE) 21:00:42 145.980
STRAND 1 23 Oct 20:59:56 21:05:05 67° 103° (ESE) 21:10:11 437.568
O/OREOS (USA 219) 23 Oct 21:12:41 21:17:13 67° 292° (WNW) 21:21:48 437.305
Oscar 11 23 Oct 21:13:39 21:17:56 62° 75° (ENE) 21:22:12 .
UWE-3 23 Oct 21:14:30 21:18:54 41° 262° (W) 21:23:20 435.000/436.395/437.385
XW-2A 23 Oct 21:22:00 21:24:34 20° 265° (W) 21:27:09 145.665 - 145.685
FO-29 23 Oct 21:46:42 21:53:25 40° 97° (E) 22:00:36 435.910
DELFI C3 23 Oct 21:46:49 21:50:09 27° 70° (ENE) 21:53:29 145.870
Max Valier Satellite 23 Oct 21:53:22 21:56:19 23° 70° (ENE) 21:59:17 145.860
AO-73 23 Oct 21:55:35 21:59:38 31° 264° (W) 22:03:41 145.935
YUBILEINY 23 Oct 22:01:19 22:09:56 61° 269° (W) 22:18:33 435.215
BEESAT 2 23 Oct 22:18:37 22:22:36 60° 243° (WSW) 22:26:31 435.950
ZACube-1 23 Oct 22:21:37 22:24:20 15° 268° (W) 22:27:03 437.345
UNISAT 6 23 Oct 22:26:33 22:29:25 16° 92° (E) 22:32:14 437.425
BEESAT 3 23 Oct 22:27:57 22:29:52 13° 251° (WSW) 22:31:46 437.485
AO-85 23 Oct 22:33:53 22:38:30 71° 241° (WSW) 22:43:27 145.980
TIGRISAT 23 Oct 22:39:47 22:43:14 21° 93° (E) 22:46:36 435.000
STRAND 1 23 Oct 22:40:49 22:43:39 15° 298° (WNW) 22:46:30 437.568
Oscar 11 23 Oct 22:53:29 22:54:26 11° 270° (W) 22:55:23 .
EO-88 23 Oct 23:07:33 23:11:06 51° 260° (W) 23:14:40 145.990 - 145.960
RS-15 23 Oct 23:11:35 23:19:48 21° 99° (E) 23:28:01 29.354- 29.394
DELFI C3 23 Oct 23:22:03 23:24:53 19° 266° (W) 23:27:44 145.870
Max Valier Satellite 23 Oct 23:27:08 23:30:02 21° 265° (W) 23:32:57 145.860
FO-29 23 Oct 23:31:48 23:38:19 41° 292° (WNW) 23:45:23 435.910
LO-87 23 Oct 23:44:28 23:47:55 47° 75° (ENE) 23:51:25 145.935 - 145.965
ESTCUBE 1 23 Oct 23:50:30 23:54:42 42° 72° (ENE) 23:58:56 437.505/2401.250
PRISM 23 Oct 23:54:52 23:58:59 63° 101° (E) 00:03:05 437.425
UNISAT 6 24 Oct 00:02:00 00:06:21 44° 288° (WNW) 00:10:34 437.425
TIGRISAT 24 Oct 00:15:51 00:19:58 34° 290° (WNW) 00:24:00 435.000
NANOSAT C BR1 24 Oct 00:36:48 00:39:13 15° 92° (E) 00:41:35 145.865
QB50P2 24 Oct 00:37:11 00:40:14 19° 94° (E) 00:43:14 145.880/145.840
AIST 2D 24 Oct 00:37:22 00:40:46 49° 100° (E) 00:44:07 435.315
DUCHIFAT 1 24 Oct 00:45:05 00:47:41 16° 93° (E) 00:50:16 145.980
VELOX 1 24 Oct 00:59:12 01:03:15 38° 71° (ENE) 01:07:20 145.980
NO-84 24 Oct 01:17:43 01:18:45 11° 120° (ESE) 01:19:47 435.350 FM
RS-15 24 Oct 01:18:12 01:30:30 86° 119° (ESE) 01:42:52 29.354- 29.394
SPROUT 24 Oct 01:19:30 01:23:47 84° 257° (WSW) 01:28:06 437.525
ESTCUBE 1 24 Oct 01:28:45 01:31:40 17° 267° (W) 01:34:35 437.505/2401.250
PRISM 24 Oct 01:32:39 01:33:42 11° 297° (WNW) 01:34:45 437.425
EO-79 24 Oct 01:45:22 01:49:38 76° 285° (WNW) 01:53:50 145.935-145.965
POLYITAN 1 24 Oct 01:51:18 01:55:32 65° 285° (WNW) 01:59:42 437.675
DX 1 24 Oct 01:52:46 01:56:43 36° 71° (ENE) 02:00:41 434.975-435.025
UKube-1 24 Oct 02:08:23 02:12:15 33° 70° (ENE) 02:16:07 .
NANOSAT C BR1 24 Oct 02:11:05 02:15:06 43° 288° (WNW) 02:19:05 145.865
BUGSAT 1 24 Oct 02:11:10 02:15:05 37° 98° (E) 02:18:57 437.445
QB50P2 24 Oct 02:12:13 02:16:04 33° 289° (WNW) 02:19:52 145.880/145.840
Gurwin Techsat 1B 24 Oct 02:14:34 02:17:33 15° 91° (E) 02:20:32 435.225
DUCHIFAT 1 24 Oct 02:19:33 02:23:30 39° 288° (WNW) 02:27:24 145.980
50 SAT 24 Oct 02:34:14 02:37:23 48° 261° (W) 02:40:34 437.505
VELOX 1 24 Oct 02:36:52 02:39:48 18° 266° (W) 02:42:47 145.980
M-CUBED/EXP-1 PRIME 24 Oct 02:37:49 02:40:15 16° 101° (E) 02:42:46 437.505
Oscar 19 24 Oct 02:48:51 02:53:47 47° 99° (E) 02:58:41 437.125/150
NO-84 24 Oct 02:51:15 02:55:32 86° 133° (SE) 02:59:51 435.350 FM
ITUPSAT 1 24 Oct 03:14:23 03:18:11 24° 66° (ENE) 03:22:00 437.325
BEESAT 24 Oct 03:26:35 03:30:48 32° 69° (ENE) 03:35:02 436.000
DX 1 24 Oct 03:29:58 03:32:59 18° 266° (W) 03:36:01 434.975-435.025
RS-15 24 Oct 03:33:48 03:44:37 34° 324° (NW) 03:55:23 29.354- 29.394
MOZHAYETS 4 24 Oct 03:42:48 03:47:17 50° 73° (ENE) 03:51:45
UKube-1 24 Oct 03:45:11 03:48:19 20° 266° (W) 03:51:27 .
BUGSAT 1 24 Oct 03:47:20 03:50:07 17° 294° (WNW) 03:52:53 437.445
Gurwin Techsat 1B 24 Oct 03:52:38 03:57:55 63° 287° (WNW) 04:03:09 435.225
CUBESAT XI-V 24 Oct 04:06:17 04:09:34 20° 66° (ENE) 04:12:51 437.345
M-CUBED/EXP-1 PRIME 24 Oct 04:11:21 04:14:41 33° 292° (WNW) 04:18:15 437.505
Oscar 19 24 Oct 04:29:02 04:32:44 21° 296° (WNW) 04:36:26 437.125/150
NO-84 24 Oct 04:30:14 04:33:26 20° 333° (NNW) 04:36:35 435.350 FM
KKS-1 24 Oct 04:42:37 04:44:45 13° 63° (ENE) 04:46:53 437.445
ITUPSAT 1 24 Oct 04:51:23 04:55:47 35° 262° (W) 05:00:11 437.325
AO-7 24 Oct 04:52:50 05:00:59 56° 103° (ESE) 05:09:05 .
BEESAT 24 Oct 05:04:35 05:08:33 26° 264° (W) 05:12:31 436.000
ITAMSAT 1 24 Oct 05:09:28 05:14:41 62° 102° (ESE) 05:19:51 435.822/435.867
MOZHAYETS 4 24 Oct 05:22:03 05:24:41 15° 268° (W) 05:27:21
CUBESAT XI-V 24 Oct 05:42:17 05:46:38 40° 262° (W) 05:50:58 437.345
O/OREOS (USA 219) 24 Oct 05:45:24 05:48:44 20° 57° (ENE) 05:52:04 437.305
SO-50 24 Oct 05:47:12 05:50:20 19° 111° (ESE) 05:53:29 436.795
DOVE 4 24 Oct 05:52:58 05:57:09 25° 94° (E) 06:01:24 437.250
RS-15 24 Oct 05:54:26 06:02:33 19° 359° (N) 06:10:29 29.354- 29.394
KKS-1 24 Oct 06:16:25 06:20:47 58° 259° (W) 06:25:11 437.445
STARS 24 Oct 06:37:01 06:41:24 88° 253° (WSW) 06:45:51 437.465
STRAND 1 24 Oct 06:40:29 06:41:21 10° 59° (ENE) 06:42:14 437.568
AO-7 24 Oct 06:46:12 06:53:19 34° 301° (WNW) 07:00:29 .
XW-2F 24 Oct 06:47:09 06:49:05 14° 92° (E) 06:51:00 145.980 - 146.000
ITAMSAT 1 24 Oct 06:50:22 06:53:36 17° 298° (WNW) 06:56:49 435.822/435.867
LilacSat-2 24 Oct 07:00:30 07:03:35 24° 96° (E) 07:06:39 437.200
XW-2D 24 Oct 07:02:03 07:05:06 23° 96° (E) 07:08:09 145.860 - 145.880
PCSat 24 Oct 07:03:45 07:06:46 15° 104° (ESE) 07:09:48 145.827
XW-2B 24 Oct 07:15:22 07:18:47 33° 97° (E) 07:22:10 145.730 - 145.750
O/OREOS (USA 219) 24 Oct 07:24:01 07:28:20 41° 255° (WSW) 07:32:36 437.305
SO-50 24 Oct 07:26:11 07:30:27 43° 307° (NW) 07:34:45 436.795
DOVE 4 24 Oct 07:30:08 07:34:50 39° 289° (WNW) 07:39:41 437.250
XW-2C 24 Oct 07:38:38 07:42:23 71° 101° (E) 07:46:06 145.795 - 145.815
JUGNU 24 Oct 07:45:25 07:46:23 10° 184° (S) 07:47:20 437.505
CUTE-I 24 Oct 07:48:35 07:53:56 63° 102° (ESE) 07:59:15 437.470
NO-84 24 Oct 07:50:01 07:51:20 11° 15° (NNE) 07:52:37 435.350 FM
HO-68 24 Oct 07:57:56 08:04:16 32° 96° (E) 08:10:31 435.675
FO-29 24 Oct 08:02:49 08:04:29 11° 56° (NE) 08:06:11 435.910
RS-15 24 Oct 08:10:11 08:20:35 32° 34° (NE) 08:30:30 29.354- 29.394
KAITUO 1B 24 Oct 08:10:23 08:14:02 60° 285° (WNW) 08:17:40 145.475/437.950
STRAND 1 24 Oct 08:14:33 08:19:41 85° 76° (ENE) 08:24:52 437.568
NUDT-PHONESAT 24 Oct 08:17:23 08:20:56 50° 285° (WNW) 08:24:28 437.300
XW-2F 24 Oct 08:19:55 08:23:18 34° 287° (WNW) 08:26:42 145.980 - 146.000
nSIGHT-1 24 Oct 08:21:51 08:24:03 17° 131° (SE) 08:26:15 .
SEEDS 24 Oct 08:26:01 08:29:40 29° 96° (E) 08:33:19 437.485
CUTE 1.7 + AOD 2 24 Oct 08:27:03 08:31:10 50° 100° (E) 08:35:14 437.475
LilacSat-2 24 Oct 08:34:52 08:37:43 21° 291° (WNW) 08:40:34 437.200
CUBEBUG 2 24 Oct 08:36:15 08:40:30 37° 97° (E) 08:44:35 437.445
XW-2D 24 Oct 08:36:19 08:39:08 21° 291° (WNW) 08:41:57 145.860 - 145.880
AAUSAT CUBESAT 2 24 Oct 08:37:29 08:40:10 17° 93° (E) 08:42:49 437.432
XW-2A 24 Oct 08:43:59 08:46:40 22° 96° (E) 08:49:20 145.665 - 145.685
PCSat 24 Oct 08:44:09 08:49:32 68° 300° (WNW) 08:54:57 145.827
XW-2B 24 Oct 08:50:27 08:52:39 15° 293° (WNW) 08:54:52 145.730 - 145.750
Oscar 11 24 Oct 09:03:51 09:05:34 12° 91° (E) 09:07:16 .
ISS 24 Oct 09:04:47 09:07:52 42° 136° (SE) 09:10:58 437.550
UWE-3 24 Oct 09:05:10 09:09:24 42° 98° (E) 09:13:29 435.000/436.395/437.385
YUBILEINY 24 Oct 09:05:16 09:12:42 33° 84° (E) 09:20:10 435.215
UNISAT 6 24 Oct 09:24:42 09:27:12 14° 64° (ENE) 09:29:42 437.425
NO-84 24 Oct 09:26:06 09:29:47 35° 36° (NE) 09:33:10 435.350 FM
CUTE-I 24 Oct 09:30:04 09:33:25 17° 298° (WNW) 09:36:46 437.470
TIGRISAT 24 Oct 09:37:31 09:40:39 18° 65° (ENE) 09:43:47 435.000
FO-29 24 Oct 09:43:16 09:48:31 88° 76° (ENE) 09:54:17 435.910
AO-73 24 Oct 09:44:07 09:48:21 53° 100° (E) 09:52:26 145.935
HO-68 24 Oct 09:45:17 09:52:06 47° 293° (WNW) 09:58:53 435.675
nSIGHT-1 24 Oct 09:57:00 10:00:04 44° 326° (NNW) 10:03:10 .
SEEDS 24 Oct 10:01:59 10:05:10 22° 291° (WNW) 10:08:22 437.485
CUTE 1.7 + AOD 2 24 Oct 10:04:29 10:06:32 13° 295° (WNW) 10:08:34 437.475
ZACube-1 24 Oct 10:08:54 10:13:13 68° 285° (WNW) 10:17:23 437.345
AAUSAT CUBESAT 2 24 Oct 10:11:54 10:15:42 36° 288° (WNW) 10:19:29 437.432
CUBEBUG 2 24 Oct 10:13:29 10:16:49 20° 294° (WNW) 10:20:04 437.445
SRMSAT 24 Oct 10:16:29 10:17:49 11° 181° (S) 10:19:09 437.500
XW-2A 24 Oct 10:17:00 10:19:12 17° 291° (WNW) 10:21:22 145.665 - 145.685
RS-15 24 Oct 10:22:49 10:34:47 89° 240° (WSW) 10:46:02 29.354- 29.394
PCSat 24 Oct 10:31:57 10:33:58 12° 320° (NW) 10:35:59 145.827
Oscar 11 24 Oct 10:37:48 10:42:00 53° 286° (WNW) 10:46:10 .
EO-88 24 Oct 10:38:22 10:40:12 13° 93° (E) 10:42:00 145.990 - 145.960
ISS 24 Oct 10:41:44 10:44:27 24° 333° (NNW) 10:47:10 437.550
UWE-3 24 Oct 10:42:37 10:45:27 17° 295° (WNW) 10:48:13 435.000/436.395/437.385
PRISM 24 Oct 10:42:54 10:46:37 36° 71° (ENE) 10:50:21 437.425
